Weather History for Evanston, WY

Change the Weather History Date:

Wednesday, March 27, 2013

  Actual Average Record
Temperature  
Mean Temperature 40 °F 34 °F  
Max Temperature 52 °F 43 °F 52 °F (2007)
Min Temperature 27 °F 25 °F 1 °F (2009)
Degree Days  
Heating Degree Days 25 31  
Month to date heating degree days 911 939  
Since 1 July heating degree days 6506 6947  
Cooling Degree Days 0 0  
Month to date cooling degree days 0 0  
Year to date cooling degree days 0 0  
Moisture  
Dew Point 23 °F    
Average Humidity 58    
Maximum Humidity 85    
Minimum Humidity 30    
Precipitation  
Precipitation 0.00 in 0.04 in 0.09 in (2003)
Month to date precipitation 0.40 0.70  
Year to date precipitation 0.87 1.85  
Sea Level Pressure  
Sea Level Pressure 29.97 in    
Wind  
Wind Speed 8 mph (SSW)    
Max Wind Speed 14 mph    
Max Gust Speed 36 mph    
Visibility 10 miles    
Events      
T = Trace of Precipitation, MM = Missing Value Source: NWS Daily Summary

Daily Weather History Graph

Daily Weather History Graph

Search for Another Location

Airport:

Trip Planner

Search our weather history database for the weather conditions in past years. The results will help you decide how hot, cold, wet, or windy it might be!

Date:

Astronomy

Mar. 27, 2013 Rise Set
Actual Time 7:15 AM MDT 7:44 PM MDT
Civil Twilight 6:47 AM MDT 8:11 PM MDT
Nautical Twilight 6:14 AM MDT 8:44 PM MDT
Astronomical Twilight 5:41 AM MDT 9:18 PM MDT
Moon 8:32 PM MDT (3/27) 7:07 AM MDT (3/27)
Length of Visible Light 13h 24m
Length of Day
12h 29m
Full, 100% of the Moon is Illuminated
Mar 27
Full
Apr 2
Last Quarter
Apr 10
New
Apr 18
First Quarter
Apr 25
Full

Hourly Weather History & Observations

Time (MDT) Temp. Windchill Dew Point Humidity Pressure Visibility Wind Dir Wind Speed Gust Speed Precip Events Conditions
12:53 AM 30.0 °F 25.2 °F 24.1 °F 79% 29.94 in 10.0 mi SSW 4.6 mph - N/A   Clear
1:53 AM 30.0 °F 25.2 °F 25.0 °F 82% 29.92 in 10.0 mi South 4.6 mph - N/A   Clear
2:53 AM 30.0 °F 25.2 °F 24.1 °F 79% 29.93 in 10.0 mi South 4.6 mph - N/A   Clear
3:53 AM 28.9 °F 22.8 °F 24.1 °F 82% 29.92 in 10.0 mi South 5.8 mph - N/A   Clear
4:53 AM 28.0 °F 20.8 °F 23.0 °F 81% 29.94 in 10.0 mi SSE 6.9 mph - N/A   Clear
5:53 AM 28.9 °F 22.8 °F 23.0 °F 78% 29.94 in 10.0 mi South 5.8 mph - N/A   Clear
6:53 AM 28.0 °F 21.7 °F 21.9 °F 78% 29.98 in 10.0 mi South 5.8 mph - N/A   Clear
7:53 AM 28.0 °F 20.8 °F 21.0 °F 75% 30.02 in 10.0 mi SSE 6.9 mph - N/A   Clear
8:53 AM 32.0 °F 26.4 °F 25.0 °F 75% 30.02 in 10.0 mi South 5.8 mph - N/A   Clear
9:53 AM 37.9 °F 35.5 °F 26.1 °F 62% 30.01 in 10.0 mi South 3.5 mph - N/A   Clear
10:53 AM 43.0 °F 37.2 °F 26.1 °F 51% 30.00 in 10.0 mi SSW 10.4 mph - N/A   Clear
11:53 AM 46.9 °F - 21.0 °F 36% 29.99 in 10.0 mi SW 11.5 mph - N/A   Clear
12:53 PM 48.0 °F - 21.0 °F 34% 29.98 in 10.0 mi West 12.7 mph 18.4 mph N/A   Partly Cloudy
1:53 PM 46.9 °F - 19.0 °F 33% 29.98 in 10.0 mi SW 5.8 mph 20.7 mph N/A   Overcast
2:53 PM 48.9 °F - 23.0 °F 36% 29.95 in 10.0 mi SW 13.8 mph 23.0 mph N/A   Overcast
3:53 PM 51.1 °F - 23.0 °F 33% 29.95 in 10.0 mi WSW 12.7 mph 23.0 mph N/A   Scattered Clouds
4:53 PM 51.1 °F - 21.0 °F 31% 29.94 in 10.0 mi WSW 10.4 mph - N/A   Partly Cloudy
5:53 PM 51.1 °F - 21.9 °F 32% 29.94 in 10.0 mi West 5.8 mph - N/A   Partly Cloudy
6:53 PM 48.9 °F - 21.9 °F 35% 29.96 in 10.0 mi WNW 8.1 mph - N/A   Clear
7:53 PM 44.1 °F 40.8 °F 21.9 °F 42% 29.99 in 10.0 mi NW 5.8 mph - N/A   Scattered Clouds
8:53 PM 41.0 °F 35.8 °F 24.1 °F 51% 30.00 in 10.0 mi North 8.1 mph - N/A   Scattered Clouds
9:53 PM 41.0 °F 36.4 °F 24.1 °F 51% 29.98 in 10.0 mi ENE 6.9 mph - N/A   Scattered Clouds
10:53 PM 37.0 °F 30.4 °F 24.1 °F 59% 30.00 in 10.0 mi ESE 9.2 mph - N/A   Partly Cloudy
11:53 PM 35.1 °F 28.6 °F 25.0 °F 67% 29.99 in 10.0 mi East 8.1 mph - N/A   Scattered Clouds